OpenBCM V2.0.3 (Linux)

Packet Radio Mailbox

IZ3LSV

[San Dona' di P. JN]

 Login: GUEST





  
LU9DCE > KEPS     17.02.18 18:13l 260 Lines 12901 Bytes #999 (0) @ WW
BID : 32097_LU9DCE
Read: GUEST
Subj: SAT TLE OF 17
Path: IZ3LSV<IR2UBX<EA2RCF<LU9DCE
Sent: 180217/1601Z @:LU9DCE.TOR.BA.ARG.SOAM #:32097 [TORTUGUITAS] FBB7.07
From: LU9DCE@LU9DCE.TOR.BA.ARG.SOAM
To  : KEPS@WW


            __    _  _  ___  ____   ___  ____    ____  ____  ____
           (  )  / )( \/ _ \(    \ / __)(  __)  (  _ \(  _ \/ ___)
           / (_/\) \/ (\__  )) D (( (__  ) _)    ) _ ( ) _ (\___ \
           \____/\____/(___/(____/ \___)(____)  (____/(____/(____/
               ESTACION DE PACKET RADIO - BUENOS AIRES (GF05OM)
                   BOLETINES INFORMATIVOS PROGRAMADOS (BIP)
                    LU9DCE@GMX.COM - RF 147070 @ 1200 BAUD
                           telnet lu9dce.dynu.com
             BBS port 6300 / NODE port 3694 / DXCLUSTER port 9000

+------------------------------------------------------------------------------+
OSCAR 7
1  7530U 74089B   18047.91289545 -.00000044 +00000-0 +24370-5 0  9996
2  7530 101.6711 017.1165 0011883 207.0551 218.3135 12.53631096979291
OSCAR 11 (UoSAT 2)
1 14781U 84021B   18047.89926578 +.00000085 +00000-0 +16632-4 0  9995
2 14781 097.6657 089.1411 0009878 114.2347 245.9900 14.82980656805619
OSCAR 19 (LUSAT)
1 20442U 90005G   18048.38625039 -.00000010  00000-0  12546-4 0  9997
2 20442  98.6003 347.6850 0012427 139.6015 220.6094 14.32886744466730
KITSAT B
1 22825U 93061C   18048.50480948 -.00000007  00000-0  14997-4 0  9999
2 22825  98.8483  22.5446 0008075 343.1072  16.9839 14.30021960272467
POSAT 1
1 22826U 93061D   18048.47935770 -.00000004  00000-0  16160-4 0  9995
2 22826  98.8425  22.5714 0008434 332.1163  27.9566 14.30352827272648
RADIO ROSTO
1 23439U 94085A   18047.81126696 -.00000056  00000-0 -38729-3 0  9991
2 23439  64.8156 183.5161 0161261 203.4756 273.1247 11.27566564953154
JAS 2
1 24278U 96046B   18047.92232521 -.00000000 +00000-0 +33117-4 0  9994
2 24278 098.5286 263.1693 0351253 063.0206 300.6349 13.53081392061725
TECHSAT 1B
1 25397U 98043D   18047.91939953 -.00000016 +00000-0 +11997-4 0  9997
2 25397 098.6386 350.4249 0001884 045.3668 314.7664 14.23639716018392
ISS (ZARYA)
1 25544U 98067A   18047.86152778 +.00001107 +00000-0 +23991-4 0  9991
2 25544 051.6418 258.5630 0003559 107.1173 077.0669 15.54099331099809
PCSAT
1 26931U 01043C   18048.51816034 -.00000044  00000-0  14902-4 0  9997
2 26931  67.0511 178.1908 0005808 281.7169  78.3281 14.30494106855438
SAUDISAT 1C
1 27607U 02058C   18048.10601947  .00000013  00000-0  22551-4 0  9999
2 27607  64.5550  97.0705 0050868 357.2288   2.8524 14.75420073815243
CUTE-1
1 27844U 03031E   18047.99795203  .00000048  00000-0  41304-4 0  9994
2 27844  98.6890  58.4150 0009798   5.9632 354.1661 14.22094738759117
CUBESAT XI 4
1 27848U 03031J   18048.48695182  .00000030  00000-0  33631-4 0  9993
2 27848  98.6979  59.2532 0009869  14.5870 345.5590 14.21701345759057
MOZHAYETS 4
1 27939U 03042A   18048.51651719  .00000109  00000-0  28005-4 0  9994
2 27939  97.9700 190.8811 0013436 162.7517 272.4622 14.66657796769271
CUBESAT XI 5
1 28895U 05043F   18047.94709979 +.00000120 +00000-0 +31743-4 0  9993
2 28895 097.8901 204.3967 0018185 090.1300 270.1987 14.63509023656054
CUTE-1.7+APD II
1 32785U 08021C   18047.81988139 +.00000224 +00000-0 +29961-4 0  9992
2 32785 097.5528 065.7126 0014626 079.2644 281.0219 14.88061860531207
DELFI C3
1 32789U 08021G   18047.71093457 +.00001599 +00000-0 +11452-3 0  9996
2 32789 097.5282 105.4976 0012107 355.4661 004.6454 15.05747463533553
SEEDS
1 32791U 08021J   18047.63388300  .00000259  00000-0  31954-4 0  9996
2 32791  97.5448  70.6059 0014767  63.4508 296.8222 14.90467726531555
YUBELEINY
1 32953U 08025A   18048.51999588  .00000035  00000-0  18026-3 0  9990
2 32953  82.4998  87.1067 0020368 110.4126 249.9143 12.43081730441906
PRISM (HITOMI)
1 33493U 09002B   18048.52150459  .00000528  00000-0  52589-4 0  9993
2 33493  98.1435 305.9485 0015530 357.9883   2.1273 14.96072680492457
KKS-1 (KISEKI)
1 33499U 09002H   18047.86136085  .00000101  00000-0  22942-4 0  9991
2 33499  98.3487 225.7514 0008364 321.7656  38.2957 14.75294541487438
SWISSCUBE
1 35932U 09051B   18048.39179584  .00000133  00000-0  41183-4 0  9992
2 35932  98.5258 196.7992 0007180 210.1675 149.9109 14.56121207446008
BEESAT
1 35933U 09051C   18048.35901263  .00000117  00000-0  37442-4 0  9991
2 35933  98.5298 198.2356 0005140 222.3537 137.7264 14.56229415446108
ITUPSAT 1
1 35935U 09051E   18048.41500152  .00000070  00000-0  27181-4 0  9999
2 35935  98.5409 198.5470 0007515 219.2429 140.8223 14.55410842445909
XIWANG-1 (HOPE-1)
1 36122U 09072B   18048.53264275 -.00000019  00000-0  59604-4 0  9996
2 36122 100.0835  68.7291 0007826  33.4926 326.6682 13.16343517392906
TISAT 1
1 36799U 10035E   18048.10342116  .00000535  00000-0  60546-4 0  9990
2 36799  98.0873 181.2847 0011298 239.1602 120.8504 14.90694682412260
JUGNU
1 37839U 11058B   18048.34479317  .00000324  00000-0  30958-4 0  9992
2 37839  19.9624  43.9464 0018988   6.6578 129.9387 14.12609537328403
SRMSAT
1 37841U 11058D   18047.48301596  .00000298  00000-0  18563-4 0  9990
2 37841  19.9724  95.8831 0011652 244.5120 243.4776 14.10598244327816
M-CUBED/EXP-1 PRIME
1 37855U 11061F   18048.48239382  .00001872  00000-0  10347-3 0  9993
2 37855 101.7251  49.7541 0177684  76.3995 285.6937 15.04055648343658
HORYU 2
1 38340U 12025D   18047.90994643 +.00000190 +00000-0 +36031-4 0  9999
2 38340 098.3739 065.4535 0010637 229.8329 130.1948 14.75499192298960
STRAND 1
1 39090U 13009E   18048.53064659  .00000030  00000-0  25810-4 0  9996
2 39090  98.5323 256.3868 0008213 296.0630  63.9709 14.35011295260666
SOMP
1 39134U 13015E   18047.78361848  .00001448  00000-0  78422-4 0  9999
2 39134  64.8638 156.2911 0024720 227.0106 132.8949 15.18809966266615
BEESAT 3
1 39135U 13015F   18047.94034806  .00001403  00000-0  81313-4 0  9993
2 39135  64.8697 167.6019 0030092 248.2415 111.5507 15.16393966266411
BEESAT 2
1 39136U 13015G   18048.52803461  .00001497  00000-0  87293-4 0  9996
2 39136  64.8696 168.1753 0030071 248.9718 110.8190 15.15873082266457
CUBEBUG 1
1 39153U 13018D   18048.19826546  .00000215  00000-0  35108-4 0  9995
2 39153  97.9789 144.1670 0016360 339.3451  20.7097 14.80340137259832
ZACUBE
1 39417U 13066B   18047.63891497 +.00000208 +00000-0 +32758-4 0  9996
2 39417 097.6014 082.6294 0059041 188.5892 171.4316 14.80875387228954
TRITON 1
1 39427U 13066M   18047.89805139  .00000140  00000-0  30732-4 0  9998
2 39427  97.6378  51.8277 0112739 284.9830  73.8919 14.67611167226933
GOMX 1
1 39430U 13066Q   18048.49658148  .00000274  00000-0  58839-4 0  9991
2 39430  97.6856  34.0779 0151462 348.9563  10.8325 14.59024273225701
HUMSAT D
1 39433U 13066T   18048.37951921  .00000633  00000-0  67655-4 0  9991
2 39433  97.6207 108.8578 0032396 120.4677 239.9748 14.91748651230566
50 SAT
1 39436U 13066W   18047.88653149 +.00088923 +00000-0 +11236-2 0  9990
2 39436 097.7121 174.3853 0006342 271.0691 088.9838 15.59226815233316
CUBEBUG 2
1 39440U 13066AA  18047.64494907  .00000167  00000-0  30543-4 0  9992
2 39440  97.6093  69.9972 0079570 226.2399 133.2209 14.75612220228146
FUNCUBE 1
1 39444U 13066AE  18047.63005536 +.00000244 +00000-0 +36553-4 0  9994
2 39444 097.6026 083.9926 0058331 184.4435 175.6269 14.81640144227215
UWE-3
1 39446U 13066AG  18047.73878630 +.00000196 +00000-0 +32855-4 0  9997
2 39446 097.6040 076.0460 0069676 207.4744 152.2778 14.78145115226738
SPROUT
1 39770U 14029E   18048.52826401  .00000617  00000-0  75602-4 0  9999
2 39770  97.8731 150.6297 0007615 237.2819 122.7678 14.86668272202584
UNISAT 6
1 40012U 14033C   18048.17885678  .00000151  00000-0  30293-4 0  9997
2 40012  97.8262 288.7710 0057448 224.9462 134.7089 14.73764311197021
DUCHIFAT 1
1 40021U 14033M   18047.73692337  .00000377  00000-0  44751-4 0  9990
2 40021  97.9179 326.2400 0012100 210.7163 149.3347 14.90197635199018
QB50P1
1 40025U 14033R   18047.76555584  .00000304  00000-0  38602-4 0  9997
2 40025  97.9091 323.3948 0011548 216.4556 143.5875 14.88636234198879
CHUBUSAT 1
1 40300U 14070C   18048.31893353  .00000649  00000-0  31919-4 0  9991
2 40300  97.3748 128.5370 0019278 327.8013  72.2648 15.21385004182058
NUDT-PHONESAT
1 40900U 15049B   18048.26941561  .00001763  00000-0  82948-4 0  9999
2 40900  97.4430  57.9392 0015346  89.3824  34.8796 15.20783882133682
ZDPS 2A
1 40901U 15049C   18048.48771408  .00000937  00000-0  50895-4 0  9993
2 40901  97.4596  56.7188 0015498  93.5278 266.7728 15.16855364133517
ZDPS 2B
1 40902U 15049D   18047.91773551 +.00000908 +00000-0 +49663-4 0  9991
2 40902 097.4484 054.3825 0015549 092.7927 267.5086 15.16661384133417
XW-2A
1 40903U 15049E   18048.50875794  .00001981  00000-0  51592-4 0  9996
2 40903  97.3987  82.1124 0016133 100.9954 259.3108 15.40006788135388
KAITUO 1A
1 40904U 15049F   18048.53113492  .00000580  00000-0  34614-4 0  9990
2 40904  97.4577  54.3664 0016652  91.3536  23.1674 15.14884155133386
OBJECT G
1 40905U 15049G   18048.51634889  .00000446  00000-0  28175-4 0  9993
2 40905  97.4570  52.6296 0017523  85.5197 274.8036 15.13858164133318
XW-2C
1 40906U 15049H   18048.51494047  .00000725  00000-0  42220-4 0  9991
2 40906  97.4592  54.2202 0016782  85.4170 274.8978 15.15016706133375
XW-2D
1 40907U 15049J   18048.47881870  .00000772  00000-0  44547-4 0  9997
2 40907  97.4564  53.8976 0016144  83.6580 276.6490 15.15154642133376
LILACSAT 2
1 40908U 15049K   18047.94714001 +.00000414 +00000-0 +26728-4 0  9994
2 40908 097.4671 052.8861 0017750 085.7937 274.5322 15.13406754133183
XW-2F
1 40910U 15049M   18047.99033648  .00001149  00000-0  62639-4 0  9990
2 40910  97.4572  54.5175 0016879  81.8908 278.4239 15.16260423133240
XW-2B
1 40911U 15049N   18047.96372647  .00000735  00000-0  42670-4 0  9996
2 40911  97.4601  53.8828 0016055  85.7394 274.5672 15.15102833133190
